Date String (YYYY-MM-DD hh:mm:ss) UTC,Instrument flags,Ambient pressure (hPa),Sample flow (lpm),Bypass flow (lpm),Sample temperature (°C),Ambient temperature (°C),ASC tube jacket temperature (°C),LED temperature (°C),Box temperature (°C),Sample RH (%),Span deviation,Mass concentration (μg/m³),Mass concentration (μg/m³),Mass concentration (μg/m³)
DateTimeUTC,F1_M11,P_M11,Q1_M11,Q2_M11,T1_M11,T2_M11,T3_M11,T4_M11,T5_M11,U1_M11,ZSPAN_M11,X0_M11,X2_M11,X1_M11
2023-03-01 15:00:00,,0816.4,4.99,0.00,22.8,23.1,00.0,31.4,24.8,07.0,0000.0,0017.00,0003.47,0001.62
2023-03-01 15:01:00,,0816.5,5.03,0.00,22.8,22.6,00.0,31.4,24.7,07.0,0000.0,0015.62,0003.36,0001.58
2023-03-01 15:02:00,,0816.4,5.01,0.00,22.8,22.2,00.0,31.4,24.6,07.2,0000.0,0013.73,0003.26,0001.55
2023-03-01 15:03:00,,0816.4,5.00,0.00,22.8,21.8,00.0,31.4,24.5,07.1,0000.0,0013.32,0003.20,0001.52
2023-03-01 15:04:00,,0816.4,5.00,0.00,22.7,21.5,00.0,31.4,24.4,07.1,0000.0,0012.79,0003.08,0001.51
2023-03-01 15:05:00,,0816.4,5.01,0.00,22.7,21.3,00.0,31.4,24.4,07.1,0000.0,0011.18,0002.96,0001.50
2023-03-01 15:06:00,,0816.4,5.00,0.00,22.7,21.1,00.0,31.4,24.3,07.4,0000.0,0010.53,0002.85,0001.49
2023-03-01 15:07:00,,0816.4,5.01,0.00,22.6,21.0,00.0,31.4,24.3,07.3,0000.0,0010.90,0002.84,0001.50
2023-03-01 15:08:00,,0816.5,4.98,0.00,22.6,20.9,00.0,31.4,24.3,07.4,0000.0,0011.29,0002.82,0001.51
2023-03-01 15:09:00,,0816.6,5.00,0.00,22.6,21.3,00.0,31.4,24.3,07.5,0000.0,0010.88,0002.80,0001.53
2023-03-01 15:10:00,,0816.5,4.99,0.00,22.7,22.5,00.0,31.4,24.6,07.5,0000.0,0009.71,0002.79,0001.54
2023-03-01 15:11:00,,0816.5,5.02,0.00,22.8,23.4,00.0,31.4,24.8,07.4,0000.0,0009.21,0002.72,0001.55
2023-03-01 15:12:00,,0816.5,5.00,0.00,22.9,23.2,00.0,31.5,24.8,07.4,0000.0,0008.96,0002.63,0001.55
2023-03-01 15:13:00,,0816.5,5.00,0.00,22.9,22.7,00.0,31.5,24.7,07.4,0000.0,0009.26,0002.55,0001.56
2023-03-01 15:14:00,,0816.5,4.97,0.00,22.9,22.3,00.0,31.5,24.6,07.5,0000.0,0008.83,0002.49,0001.55
2023-03-01 15:15:00,,0816.5,4.99,0.00,22.9,21.9,00.0,31.5,24.6,07.7,0000.0,0008.30,0002.41,0001.52
2023-03-01 15:16:00,,0816.5,5.01,0.00,22.8,21.6,00.0,31.5,24.5,07.8,0000.0,0008.36,0002.41,0001.51
2023-03-01 15:17:00,,0816.5,5.00,0.00,22.8,21.5,00.0,31.5,24.4,07.9,0000.0,0007.36,0002.38,0001.52
2023-03-01 15:18:00,,0816.5,5.00,0.00,22.8,21.3,00.0,31.5,24.4,07.9,0000.0,0006.64,0002.31,0001.51
2023-03-01 15:19:00,,0816.8,5.00,0.00,22.7,21.1,00.0,31.5,24.4,07.9,0000.0,0005.83,0002.27,0001.49
2023-03-01 15:20:00,,0816.7,5.01,0.00,22.7,21.0,00.0,31.5,24.3,07.8,0000.0,0006.46,0002.23,0001.47
2023-03-01 15:21:00,,0816.7,5.01,0.00,22.7,21.0,00.0,31.5,24.3,07.8,0000.0,0006.20,0002.15,0001.46
2023-03-01 15:22:00,,0816.9,5.01,0.00,22.7,21.7,00.0,31.4,24.4,08.0,0000.0,0006.12,0002.09,0001.45
2023-03-01 15:23:00,,0816.9,4.96,0.00,22.8,23.0,00.0,31.4,24.7,07.9,0000.0,0006.53,0002.09,0001.44
2023-03-01 15:24:00,,0817.1,5.00,0.00,22.9,23.2,00.0,31.5,24.8,07.7,0000.0,0005.97,0002.12,0001.43
2023-03-01 15:25:00,,0817.1,5.02,0.00,22.9,22.8,00.0,31.5,24.8,07.7,0000.0,0005.77,0002.04,0001.43
2023-03-01 15:26:00,,0816.8,4.98,0.00,22.9,22.3,00.0,31.5,24.7,07.8,0000.0,0006.33,0002.07,0001.43
2023-03-01 15:27:00,,0817.3,5.01,0.00,22.9,22.0,00.0,31.5,24.6,07.9,0000.0,0007.12,0002.05,0001.42
2023-03-01 15:28:00,,0816.9,5.01,0.00,22.8,21.7,00.0,31.5,24.5,07.5,0000.0,0007.58,0002.04,0001.40
2023-03-01 15:29:00,,0816.8,5.00,0.00,22.8,21.5,00.0,31.5,24.5,07.6,0000.0,0007.55,0002.02,0001.40
2023-03-01 15:30:00,,0816.8,5.00,0.00,22.8,21.3,00.0,31.5,24.5,07.4,0000.0,0007.51,0001.97,0001.39
2023-03-01 15:31:00,,0816.8,4.99,0.00,22.8,21.2,00.0,31.5,24.4,07.4,0000.0,0007.14,0001.99,0001.39
2023-03-01 15:32:00,,0816.8,4.99,0.00,22.7,21.1,00.0,31.5,24.3,07.1,0000.0,0006.80,0001.98,0001.39
2023-03-01 15:33:00,,0816.8,4.99,0.00,22.7,21.1,00.0,31.5,24.3,07.3,0000.0,0006.75,0001.99,0001.39
2023-03-01 15:34:00,,0816.9,5.00,0.00,22.7,21.0,00.0,31.5,24.3,07.1,0000.0,0006.64,0002.03,0001.41
2023-03-01 15:35:00,,0816.9,5.00,0.00,22.6,21.0,00.0,31.5,24.3,07.0,0000.0,0005.61,0002.01,0001.42
2023-03-01 15:36:00,,0816.8,4.99,0.00,22.7,21.9,00.0,31.5,24.5,06.9,0000.0,0005.41,0001.99,0001.41
2023-03-01 15:37:00,,0816.9,4.98,0.00,22.8,23.0,00.0,31.5,24.7,07.1,0000.0,0005.49,0002.01,0001.42
2023-03-01 15:38:00,,0816.9,4.99,0.00,22.9,23.1,00.0,31.5,24.8,07.4,0000.0,0005.72,0002.01,0001.41
2023-03-01 15:39:00,,0816.8,5.00,0.00,22.9,22.6,00.0,31.5,24.7,07.4,0000.0,0005.06,0002.03,0001.41
2023-03-01 15:40:00,,0816.9,5.02,0.00,22.9,22.3,00.0,31.5,24.7,07.1,0000.0,0005.37,0002.08,0001.40
2023-03-01 15:41:00,,0816.8,5.00,0.00,22.9,22.0,00.0,31.5,24.6,07.3,0000.0,0005.49,0002.08,0001.41
2023-03-01 15:42:00,,0816.9,5.00,0.00,22.8,21.7,00.0,31.5,24.5,07.0,0000.0,0005.64,0002.07,0001.40
2023-03-01 15:43:00,,0816.7,4.99,0.00,22.8,21.6,00.0,31.5,24.5,07.1,0000.0,0005.94,0002.08,0001.40
2023-03-01 15:44:00,,0816.8,5.00,0.00,22.8,21.4,00.0,31.5,24.5,07.1,0000.0,0005.83,0002.04,0001.39
2023-03-01 15:45:00,,0816.9,5.00,0.00,22.8,21.3,00.0,31.5,24.5,07.3,0000.0,0005.76,0002.01,0001.39
2023-03-01 15:46:00,,0816.9,4.99,0.00,22.8,21.2,00.0,31.5,24.4,07.4,0000.0,0005.83,0002.03,0001.39
2023-03-01 15:47:00,,0816.9,4.99,0.00,22.7,21.1,00.0,31.5,24.4,07.3,0000.0,0005.90,0002.05,0001.39
2023-03-01 15:48:00,,0816.8,5.01,0.00,22.7,21.1,00.0,31.5,24.4,07.4,0000.0,0005.77,0002.06,0001.38
2023-03-01 15:49:00,,0816.9,5.01,0.00,22.7,21.5,00.0,31.5,24.4,07.4,0000.0,0004.87,0002.05,0001.40
2023-03-01 15:50:00,,0816.8,4.99,0.00,22.8,22.6,00.0,31.5,24.7,07.3,0000.0,0004.38,0002.03,0001.40
2023-03-01 15:51:00,,0816.9,4.98,0.00,22.9,23.2,00.0,31.5,24.8,07.1,0000.0,0004.23,0002.00,0001.40
2023-03-01 15:52:00,,0816.8,4.99,0.00,22.9,22.8,00.0,31.5,24.8,07.1,0000.0,0003.92,0002.02,0001.40
2023-03-01 15:53:00,,0816.9,4.96,0.00,22.9,22.4,00.0,31.6,24.7,07.2,0000.0,0003.98,0002.02,0001.39
2023-03-01 15:54:00,,0816.9,5.00,0.00,22.9,22.1,00.0,31.6,24.6,07.4,0000.0,0004.48,0001.98,0001.38
2023-03-01 15:55:00,,0816.9,5.02,0.00,22.9,21.8,00.0,31.6,24.6,07.4,0000.0,0004.60,0001.99,0001.37
2023-03-01 15:56:00,,0816.8,5.01,0.00,22.9,21.6,00.0,31.6,24.5,07.3,0000.0,0004.59,0001.98,0001.37
2023-03-01 15:57:00,,0816.9,5.02,0.00,22.8,21.4,00.0,31.6,24.4,07.3,0000.0,0004.56,0001.98,0001.36
2023-03-01 15:58:00,,0816.8,5.00,0.00,22.8,21.2,00.0,31.6,24.3,07.4,0000.0,0004.65,0002.04,0001.38
2023-03-01 15:59:00,,0816.8,5.00,0.00,22.7,20.9,00.0,31.5,24.1,07.5,0000.0,0004.66,0002.05,0001.38
